FW9098 Weather Reports


Display with metric or nautical units.
time (UTC)temp
F
wind
direction
speed
MPH
gust
MPH
rain 1hr
in
rain 24hr
in
rain mn
in
humidity
%
barometer
mb
20260507043536 58 273 9.0 17.0 0.00 0.00 0.00 63 1010.1
20260507043047 58 276 8.0 18.0 0.00 0.00 0.00 63 1009.9
20260507042536 57 332 8.0 18.0 0.00 0.00 0.00 63 1009.8
20260507042035 58 316 8.0 18.0 0.00 0.00 0.00 63 1009.8
20260507041555 58 297 8.0 14.0 0.00 0.00 0.00 63 1009.7
20260507041036 57 288 6.0 14.0 0.00 0.00 0.00 63 1009.6
20260507040537 57 313 6.0 14.0 0.00 0.00 0.00 63 1009.6
20260507040058 57 268 7.0 16.0 0.00 0.00 0.00 63 1009.5
20260507035536 58 325 5.0 16.0 0.00 0.00 0.00 63 1009.5
20260507035036 58 323 8.0 16.0 0.00 0.00 0.00 63 1009.6
20260507034555 58 278 8.0 18.0 0.00 0.00 0.00 63 1009.7
20260507034035 58 298 8.0 18.0 0.00 0.00 0.00 63 1009.6
20260507033535 58 273 6.0 16.0 0.00 0.00 0.00 63 1009.5
20260507033047 58 279 7.0 17.0 0.00 0.00 0.00 63 1009.7
20260507032539 58 293 8.0 17.0 0.00 0.00 0.00 63 1009.5
20260507032036 58 305 9.0 17.0 0.00 0.00 0.00 63 1009.5
20260507031543 58 329 8.0 15.0 0.00 0.00 0.00 63 1009.5
20260507031035 58 317 7.0 14.0 0.00 0.00 0.00 64 1009.5
20260507030537 58 342 9.0 14.0 0.00 0.00 0.00 64 1009.4
20260507030053 58 275 6.0 16.0 0.00 0.00 0.00 64 1009.4
20260507025537 58 313 9.0 16.0 0.00 0.00 0.00 64 1009.3
20260507025036 58 267 8.0 16.0 0.00 0.00 0.00 64 1009.2
20260507024551 58 328 8.0 16.0 0.00 0.00 0.00 64 1009.3
20260507024037 58 292 6.0 15.0 0.00 0.00 0.00 65 1009.2
20260507023535 58 303 8.0 15.0 0.00 0.00 0.00 65 1009.1
20260507023047 59 297 7.0 15.0 0.00 0.00 0.00 65 1009.3
20260507022535 59 341 8.0 15.0 0.00 0.00 0.00 65 1009.3
20260507022037 59 275 7.0 14.0 0.00 0.00 0.00 65 1009.2
20260507021548 59 292 8.0 15.0 0.00 0.00 0.00 65 1009.3
20260507021037 59 311 8.0 15.0 0.00 0.00 0.00 65 1009.3
20260507020536 59 324 8.0 15.0 0.00 0.00 0.00 65 1009.2
20260507020101 59 304 6.0 16.0 0.00 0.00 0.00 65 1009.1
20260507015536 59 308 9.0 18.0 0.00 0.00 0.00 65 1008.9
20260507015036 59 360 8.0 18.0 0.00 0.00 0.00 65 1009.0
20260507014601 59 313 9.0 18.0 0.00 0.00 0.00 65 1008.9
20260507014036 59 281 8.0 16.0 0.00 0.00 0.00 65 1009.0
20260507013538 59 286 8.0 16.0 0.00 0.00 0.00 65 1008.9
20260507013047 59 328 6.0 18.0 0.00 0.00 0.00 65 1009.0
20260507012535 60 283 5.0 18.0 0.00 0.00 0.00 65 1008.9
20260507012035 60 323 6.0 15.0 0.00 0.00 0.00 65 1008.9
20260507011556 60 268 6.0 18.0 0.00 0.00 0.00 65 1008.8
20260507011036 60 291 8.0 18.0 0.00 0.00 0.00 65 1008.7
20260507010536 60 338 7.0 17.0 0.00 0.00 0.00 65 1008.7
20260507010046 60 321 10.0 17.0 0.00 0.00 0.00 65 1008.7
20260507005536 60 244 6.0 15.0 0.00 0.00 0.00 65 1008.8
20260507005039 60 270 8.0 19.0 0.00 0.00 0.00 64 1008.7
20260507004551 60 232 7.0 19.0 0.00 0.00 0.00 64 1008.7
20260507004035 60 280 8.0 21.0 0.00 0.00 0.00 63 1008.7
20260507003539 61 273 10.0 21.0 0.00 0.00 0.00 63 1008.6
20260507003043 61 248 8.0 16.0 0.00 0.00 0.00 63 1008.5
20260507002535 61 5 7.0 14.0 0.00 0.00 0.00 63 1008.5
20260507002035 61 355 6.0 14.0 0.00 0.00 0.00 63 1008.5
20260507001612 61 340 7.0 14.0 0.00 0.00 0.00 63 1008.3
20260507001034 61 317 5.0 14.0 0.00 0.00 0.00 63 1008.5
20260507000539 61 226 4.0 14.0 0.00 0.00 0.00 63 1008.3
20260507000100 61 291 6.0 15.0 0.00 0.00 0.00 63 1008.3
20260506235536 61 288 4.0 15.0 0.00 0.00 0.00 63 1008.2
20260506235036 61 290 8.0 15.0 0.00 0.00 0.00 63 1008.1
20260506234558 62 0 5.0 18.0 0.00 0.00 0.00 64 1008.3
20260506234036 62 262 9.0 18.0 0.00 0.00 0.00 65 1008.2
20260506233537 62 290 7.0 15.0 0.00 0.00 0.00 66 1008.2
20260506233046 61 237 6.0 17.0 0.00 0.00 0.00 67 1008.3
20260506232536 61 260 7.0 18.0 0.00 0.00 0.00 68 1008.1
20260506232035 62 300 6.0 18.0 0.00 0.00 0.00 68 1008.1
20260506231552 62 223 9.0 18.0 0.00 0.00 0.00 68 1008.0
20260506231036 62 298 7.0 16.0 0.00 0.00 0.00 68 1008.0
20260506230539 62 313 6.0 19.0 0.00 0.00 0.00 67 1008.0
20260506230054 62 325 7.0 19.0 0.00 0.00 0.00 66 1008.0
20260506225535 62 239 8.0 18.0 0.00 0.00 0.00 66 1007.9
20260506225036 62 278 6.0 14.0 0.00 0.00 0.00 64 1007.7
20260506224552 63 315 7.0 14.0 0.00 0.00 0.00 63 1007.4
20260506224035 63 267 7.0 16.0 0.00 0.00 0.00 62 1007.3
20260506223535 63 290 7.0 16.0 0.00 0.00 0.00 61 1007.2
20260506223053 63 259 5.0 13.0 0.00 0.00 0.00 61 1007.0
20260506222536 63 214 7.0 13.0 0.00 0.00 0.00 61 1007.0
20260506222036 63 240 5.0 10.0 0.00 0.00 0.00 61 1007.0
20260506221553 63 209 3.0 9.0 0.00 0.00 0.00 61 1006.9
20260506221035 63 302 2.0 8.0 0.00 0.00 0.00 62 1006.8
20260506220536 63 302 3.0 8.0 0.00 0.00 0.00 62 1006.6
20260506220107 63 250 3.0 8.0 0.00 0.00 0.00 62 1006.6
20260506215537 63 220 2.0 6.0 0.00 0.00 0.00 63 1006.4
20260506215037 63 209 2.0 7.0 0.00 0.00 0.00 63 1006.3
20260506214550 63 171 2.0 7.0 0.00 0.00 0.00 62 1006.1
20260506214036 64 161 1.0 7.0 0.00 0.00 0.00 62 1005.8
20260506213536 64 0 1.0 6.0 0.00 0.00 0.00 62 1005.7
20260506213057 64 124 0.0 6.0 0.00 0.00 0.00 62 1005.5
20260506212536 64 146 2.0 7.0 0.00 0.00 0.00 62 1005.5
20260506212036 64 145 2.0 7.0 0.00 0.00 0.00 61 1005.4
20260506211550 64 156 2.0 7.0 0.00 0.00 0.00 62 1005.3
20260506211036 64 165 2.0 8.0 0.00 0.00 0.00 62 1005.2
20260506210538 64 114 2.0 10.0 0.00 0.00 0.00 61 1005.2
20260506210057 64 113 1.0 10.0 0.00 0.00 0.00 61 1005.1
20260506205535 65 116 3.0 10.0 0.00 0.00 0.00 61 1005.1
20260506205035 65 112 2.0 11.0 0.00 0.00 0.00 61 1005.1
20260506204550 65 119 3.0 11.0 0.00 0.00 0.00 60 1005.1
20260506204035 65 142 5.0 11.0 0.00 0.00 0.00 60 1005.1
20260506203535 65 113 3.0 11.0 0.00 0.00 0.00 60 1005.1
20260506203137 65 117 2.0 12.0 0.00 0.00 0.00 60 1005.0
20260506202535 65 126 4.0 12.0 0.00 0.00 0.00 59 1005.0
20260506202035 65 139 4.0 12.0 0.00 0.00 0.00 59 1005.0
20260506201548 66 140 5.0 12.0 0.00 0.00 0.00 59 1004.9
20260506201035 66 119 3.0 13.0 0.00 0.00 0.00 59 1004.8
20260506200537 66 126 4.0 13.0 0.00 0.00 0.00 58 1004.8
20260506200052 66 148 4.0 13.0 0.00 0.00 0.00 58 1004.9
20260506195536 66 117 3.0 12.0 0.00 0.00 0.00 58 1004.7
20260506195036 66 123 5.0 12.0 0.00 0.00 0.00 58 1004.7
20260506194549 66 142 3.0 13.0 0.00 0.00 0.00 58 1004.7
20260506194035 66 123 5.0 13.0 0.00 0.00 0.00 57 1004.5
20260506193534 66 127 6.0 15.0 0.00 0.00 0.00 57 1004.5
20260506193047 67 119 5.0 15.0 0.00 0.00 0.00 57 1004.5
20260506192534 67 159 4.0 12.0 0.00 0.00 0.00 57 1004.5
20260506192034 67 117 4.0 15.0 0.00 0.00 0.00 57 1004.4
20260506191551 67 144 4.0 15.0 0.00 0.00 0.00 56 1004.4
20260506191035 67 118 5.0 16.0 0.00 0.00 0.00 56 1004.4
20260506190535 67 127 5.0 16.0 0.00 0.00 0.00 56 1004.2
20260506190050 67 135 5.0 16.0 0.00 0.00 0.00 56 1004.0
20260506185534 67 178 6.0 16.0 0.00 0.00 0.00 55 1004.0
20260506185034 68 115 6.0 16.0 0.00 0.00 0.00 55 1004.0
20260506184559 68 148 6.0 16.0 0.00 0.00 0.00 55 1004.0
20260506184034 68 134 6.0 16.0 0.00 0.00 0.00 54 1004.0
20260506183534 68 121 6.0 16.0 0.00 0.00 0.00 54 1003.9
20260506183053 68 154 5.0 13.0 0.00 0.00 0.00 54 1003.9
20260506182534 68 135 4.0 15.0 0.00 0.00 0.00 54 1003.8
20260506182034 69 80 6.0 15.0 0.00 0.00 0.00 53 1003.8
20260506181545 69 123 5.0 15.0 0.00 0.00 0.00 53 1003.7
20260506181037 69 131 4.0 12.0 0.00 0.00 0.00 53 1003.7
20260506180533 69 141 4.0 13.0 0.00 0.00 0.00 52 1003.6
20260506180048 69 154 5.0 13.0 0.00 0.00 0.00 52 1003.5
20260506175533 70 139 5.0 12.0 0.00 0.00 0.00 51 1003.5
20260506175034 70 165 5.0 13.0 0.00 0.00 0.00 51 1003.6
20260506174606 70 133 5.0 13.0 0.00 0.00 0.00 51 1003.5
20260506174035 70 123 5.0 15.0 0.00 0.00 0.00 50 1003.5
20260506173536 71 124 5.0 15.0 0.00 0.00 0.00 50 1003.5
20260506173054 71 137 7.0 16.0 0.00 0.00 0.00 50 1003.5
20260506172536 71 156 5.0 17.0 0.00 0.00 0.00 50 1003.5
20260506172039 71 168 7.0 17.0 0.00 0.00 0.00 50 1003.6
20260506171550 72 164 6.0 17.0 0.00 0.00 0.00 49 1003.5
20260506171036 72 158 5.0 21.0 0.00 0.00 0.00 49 1003.5
20260506170535 72 156 8.0 26.0 0.00 0.00 0.00 48 1003.5
20260506170053 73 144 5.0 26.0 0.00 0.00 0.00 48 1003.6
20260506165537 73 143 6.0 14.0 0.00 0.00 0.00 47 1003.5
20260506165036 73 123 4.0 16.0 0.00 0.00 0.00 47 1003.4
20260506164552 74 360 6.0 16.0 0.00 0.00 0.00 45 1003.5
20260506164036 74 156 6.0 19.0 0.00 0.00 0.00 45 1003.6
20260506163536 74 148 6.0 21.0 0.00 0.00 0.00 45 1003.6
20260506163102 74 142 7.0 21.0 0.00 0.00 0.00 45 1003.6
20260506162536 74 360 7.0 23.0 0.00 0.00 0.00 45 1003.6
20260506162037 75 157 10.0 23.0 0.00 0.00 0.00 45 1003.7
20260506161547 75 123 9.0 22.0 0.00 0.00 0.00 44 1003.7
20260506161039 75 125 7.0 21.0 0.00 0.00 0.00 46 1003.7
20260506160536 75 112 7.0 18.0 0.00 0.00 0.00 46 1003.9
20260506160050 75 120 7.0 19.0 0.00 0.00 0.00 45 1003.9
20260506155536 75 190 8.0 19.0 0.00 0.00 0.00 46 1003.8
20260506155038 75 103 8.0 22.0 0.00 0.00 0.00 45 1003.8
20260506154552 75 110 6.0 22.0 0.00 0.00 0.00 46 1003.7
20260506154039 75 155 10.0 22.0 0.00 0.00 0.00 45 1003.7
20260506153535 75 153 6.0 18.0 0.00 0.00 0.00 45 1003.8
20260506153109 76 138 9.0 21.0 0.00 0.00 0.00 44 1003.8
20260506152537 76 155 6.0 21.0 0.00 0.00 0.00 44 1003.9
20260506152036 75 138 9.0 20.0 0.00 0.00 0.00 43 1003.9
20260506151546 76 157 5.0 21.0 0.00 0.00 0.00 43 1003.8
20260506151035 76 125 8.0 21.0 0.00 0.00 0.00 42 1003.8
20260506150536 76 150 10.0 22.0 0.00 0.00 0.00 42 1003.8
20260506150048 76 99 9.0 29.0 0.00 0.00 0.00 42 1003.8
20260506145535 76 103 11.0 29.0 0.00 0.00 0.00 41 1003.8
20260506145036 76 133 11.0 29.0 0.00 0.00 0.00 41 1003.9
20260506144547 76 132 7.0 24.0 0.00 0.00 0.00 42 1003.7
20260506144035 76 132 8.0 24.0 0.00 0.00 0.00 42 1003.9
20260506143535 76 144 11.0 26.0 0.00 0.00 0.00 40 1003.8
20260506143045 77 127 6.0 26.0 0.00 0.00 0.00 40 1003.8
20260506142538 77 155 8.0 24.0 0.00 0.00 0.00 39 1003.8
20260506142035 78 128 9.0 24.0 0.00 0.00 0.00 38 1003.9
20260506141549 78 96 9.0 23.0 0.00 0.00 0.00 38 1003.9
20260506141035 79 112 5.0 22.0 0.00 0.00 0.00 38 1003.9
20260506140539 79 123 5.0 24.0 0.00 0.00 0.00 39 1003.9
20260506140051 78 116 9.0 23.0 0.00 0.00 0.00 39 1003.9
20260506135536 78 102 10.0 23.0 0.00 0.00 0.00 39 1004.0
20260506135035 79 147 9.0 23.0 0.00 0.00 0.00 38 1004.0
20260506134547 78 167 9.0 23.0 0.00 0.00 0.00 39 1004.0
20260506134036 79 104 9.0 21.0 0.00 0.00 0.00 38 1004.2
20260506133536 78 163 7.0 21.0 0.00 0.00 0.00 38 1004.2
20260506133050 79 153 7.0 22.0 0.00 0.00 0.00 37 1004.1
20260506132535 80 130 5.0 22.0 0.00 0.00 0.00 37 1004.3
20260506132035 79 122 7.0 21.0 0.00 0.00 0.00 37 1004.3
20260506131546 78 115 8.0 21.0 0.00 0.00 0.00 38 1004.5
20260506131035 77 163 5.0 20.0 0.00 0.00 0.00 41 1004.5
20260506130536 76 99 7.0 23.0 0.00 0.00 0.00 41 1004.5
20260506130047 76 116 11.0 23.0 0.00 0.00 0.00 39 1004.6
20260506125536 76 157 8.0 22.0 0.00 0.00 0.00 39 1004.9
20260506125036 76 98 7.0 19.0 0.00 0.00 0.00 39 1004.9
20260506124547 77 129 3.0 13.0 0.00 0.00 0.00 40 1004.9
20260506124036 76 150 4.0 17.0 0.00 0.00 0.00 40 1004.9
20260506123536 76 108 6.0 19.0 0.00 0.00 0.00 39 1005.0
20260506123050 76 164 7.0 19.0 0.00 0.00 0.00 39 1005.0
20260506122535 76 140 6.0 17.0 0.00 0.00 0.00 40 1005.2
20260506122035 76 122 5.0 17.0 0.00 0.00 0.00 39 1005.2
20260506121602 76 92 7.0 17.0 0.00 0.00 0.00 39 1005.4
20260506121036 76 116 5.0 14.0 0.00 0.00 0.00 40 1005.3
20260506120536 76 143 5.0 16.0 0.00 0.00 0.00 39 1005.4
20260506120048 76 94 6.0 16.0 0.00 0.00 0.00 39 1005.5
20260506115534 75 134 8.0 16.0 0.00 0.00 0.00 40 1005.6
20260506115035 75 90 4.0 14.0 0.00 0.00 0.00 43 1005.6
20260506114546 75 121 6.0 14.0 0.00 0.00 0.00 44 1005.7
20260506114036 75 130 8.0 14.0 0.00 0.00 0.00 43 1005.7
20260506113534 76 145 7.0 22.0 0.00 0.00 0.00 43 1005.7
20260506113045 75 82 7.0 22.0 0.00 0.00 0.00 43 1005.9
20260506112537 76 112 7.0 22.0 0.00 0.00 0.00 42 1006.1
20260506112038 77 95 6.0 20.0 0.00 0.00 0.00 43 1006.1
20260506111543 76 179 6.0 20.0 0.00 0.00 0.00 44 1006.0
20260506111036 76 126 7.0 14.0 0.00 0.00 0.00 42 1006.1
20260506110539 77 165 3.0 16.0 0.00 0.00 0.00 44 1006.2
20260506110056 76 137 4.0 18.0 0.00 0.00 0.00 46 1006.4
20260506105536 76 118 7.0 18.0 0.00 0.00 0.00 45 1006.6
20260506105036 76 123 7.0 18.0 0.00 0.00 0.00 45 1006.5
20260506104549 75 137 7.0 20.0 0.00 0.00 0.00 44 1006.6
20260506104035 75 104 7.0 20.0 0.00 0.00 0.00 45 1007.0
20260506103537 75 161 6.0 18.0 0.00 0.00 0.00 45 1007.0
20260506103047 76 65 6.0 18.0 0.00 0.00 0.00 44 1007.2
20260506102536 75 131 7.0 17.0 0.00 0.00 0.00 44 1007.1
20260506102039 75 178 8.0 17.0 0.00 0.00 0.00 44 1007.2
20260506101613 74 148 7.0 19.0 0.00 0.00 0.00 45 1007.3
20260506101034 74 86 7.0 19.0 0.00 0.00 0.00 44 1007.3
20260506100535 74 93 6.0 19.0 0.00 0.00 0.00 45 1007.4
20260506100051 75 111 7.0 17.0 0.00 0.00 0.00 44 1007.6
20260506095536 75 136 6.0 17.0 0.00 0.00 0.00 43 1007.6
20260506095036 75 127 5.0 17.0 0.00 0.00 0.00 45 1007.5
20260506094553 75 117 3.0 12.0 0.00 0.00 0.00 47 1007.6
20260506094036 75 110 5.0 16.0 0.00 0.00 0.00 45 1007.6
20260506093537 75 115 5.0 16.0 0.00 0.00 0.00 44 1007.6
20260506093046 76 139 3.0 11.0 0.00 0.00 0.00 43 1007.6
20260506092536 76 117 3.0 13.0 0.00 0.00 0.00 43 1007.7
20260506092036 75 153 3.0 13.0 0.00 0.00 0.00 44 1007.8
20260506091548 74 110 2.0 11.0 0.00 0.00 0.00 46 1007.8
20260506091039 74 136 5.0 12.0 0.00 0.00 0.00 46 1007.7
20260506090536 74 124 4.0 12.0 0.00 0.00 0.00 47 1007.9
20260506090100 74 98 2.0 8.0 0.00 0.00 0.00 47 1007.7
20260506085535 74 96 2.0 10.0 0.00 0.00 0.00 47 1007.8
20260506085035 72 0 3.0 10.0 0.00 0.00 0.00 49 1007.6
20260506084552 73 78 6.0 10.0 0.00 0.00 0.00 47 1007.7
20260506084037 73 103 2.0 9.0 0.00 0.00 0.00 48 1007.8
20260506083540 73 90 2.0 9.0 0.00 0.00 0.00 49 1007.8
20260506083046 72 111 3.0 8.0 0.00 0.00 0.00 47 1007.8
20260506082540 72 0 1.0 8.0 0.00 0.00 0.00 49 1007.8
20260506082036 72 139 2.0 9.0 0.00 0.00 0.00 50 1007.7
20260506081544 71 101 2.0 9.0 0.00 0.00 0.00 51 1007.9
20260506081036 72 90 3.0 8.0 0.00 0.00 0.00 50 1007.9
20260506080536 72 0 2.0 7.0 0.00 0.00 0.00 51 1007.9
20260506073048 69 112 0.0 4.0 0.00 0.00 0.00 51 1008.1
20260506072537 69 34 1.0 4.0 0.00 0.00 0.00 49 1008.0
20260506072037 69 103 1.0 4.0 0.00 0.00 0.00 50 1008.1
20260506071548 68 0 0.0 4.0 0.00 0.00 0.00 52 1008.1
20260506071039 69 202 1.0 5.0 0.00 0.00 0.00 52 1008.1
20260506070536 69 153 1.0 5.0 0.00 0.00 0.00 53 1008.2
20260506062037 65 0 0.0 6.0 0.00 0.00 0.00 59 1008.4
20260506061550 65 286 1.0 4.0 0.00 0.00 0.00 60 1008.4
20260506061034 64 277 0.0 4.0 0.00 0.00 0.00 60 1008.5
20260506060611 64 327 0.0 4.0 0.00 0.00 0.00 61 1008.4
20260506051034 62 279 0.0 4.0 0.00 0.00 0.00 64 1008.4
20260506050535 62 288 0.0 5.0 0.00 0.00 0.00 65 1008.5
20260506050109 62 288 2.0 8.0 0.00 0.00 0.00 65 1008.5
20260506045034 62 318 2.0 7.0 0.00 0.00 0.00 65 1008.3
20260506044548 62 267 3.0 6.0 0.00 0.00 0.00 65 1008.3
20260506044036 62 234 2.0 7.0 0.00 0.00 0.00 66 1008.2